| time (UTC) | temp C | wind direction | speed KPH | gust KPH | rain 1hr cm | rain 24hr cm | rain mn cm | humidity % | barometer mb |
| 20260510134339 | 11 | 123 | 4.8 | 4.8 | 0.00 | 0.00 | 0.00 | 90 | 1017.4 |
| 20260510133835 | 11 | 110 | 1.6 | 1.6 | 0.00 | 0.00 | 0.00 | 90 | 1017.2 |
| 20260510133332 | 11 | 101 | 4.8 | 4.8 | 0.00 | 0.00 | 0.00 | 90 | 1017.0 |
| 20260510132828 | 11 | 84 | 3.2 | 3.2 | 0.00 | 0.00 | 0.00 | 90 | 1017.2 |
| 20260510132326 | 11 | 76 | 1.6 | 1.6 | 0.00 | 0.00 | 0.00 | 90 | 1017.2 |
| 20260510131822 | 11 | 95 | 3.2 | 3.2 | 0.00 | 0.00 | 0.00 | 90 | 1017.5 |
| 20260510131320 | 11 | 113 | 1.6 | 3.2 | 0.00 | 0.00 | 0.00 | 90 | 1017.5 |
| 20260510130816 | 11 | 108 | 1.6 | 1.6 | 0.00 | 0.00 | 0.00 | 90 | 1017.5 |
| 20260510130314 | 11 | 109 | 0.0 | 1.6 | 0.00 | 0.00 | 0.00 | 90 | 1017.6 |
| 20260510125810 | 11 | 113 | 1.6 | 3.2 | 0.00 | 0.00 | 0.00 | 90 | 1017.5 |
| 20260510125307 | 11 | 92 | 3.2 | 3.2 | 0.00 | 0.00 | 0.00 | 90 | 1017.5 |
| 20260510124803 | 11 | 21 | 0.0 | 0.0 | 0.00 | 0.00 | 0.00 | 90 | 1017.4 |
| 20260510124300 | 11 | 20 | 1.6 | 1.6 | 0.00 | 0.00 | 0.00 | 90 | 1017.4 |
| 20260510123755 | 11 | 53 | 3.2 | 3.2 | 0.00 | 0.00 | 0.00 | 90 | 1017.2 |
| 20260510123251 | 11 | 68 | 6.4 | 8.0 | 0.00 | 0.00 | 0.00 | 90 | 1017.6 |
| 20260510122748 | 10 | 65 | 1.6 | 3.2 | 0.00 | 0.00 | 0.00 | 90 | 1017.4 |
| 20260510122244 | 10 | 43 | 0.0 | 1.6 | 0.00 | 0.00 | 0.00 | 90 | 1017.5 |
| 20260510121740 | 10 | 18 | 3.2 | 4.8 | 0.00 | 0.00 | 0.00 | 90 | 1017.4 |
| 20260510121238 | 10 | 19 | 1.6 | 1.6 | 0.00 | 0.00 | 0.00 | 90 | 1017.2 |
| 20260510120730 | 11 | 19 | 0.0 | 0.0 | 0.00 | 0.00 | 0.00 | 90 | 1017.5 |
| 20260510120226 | 11 | 19 | 0.0 | 0.0 | 0.00 | 0.00 | 0.00 | 90 | 1017.5 |
| 20260510115721 | 11 | 18 | 0.0 | 1.6 | 0.00 | 0.00 | 0.00 | 90 | 1017.3 |
| 20260510115220 | 11 | 26 | 0.0 | 0.0 | 0.00 | 0.00 | 0.00 | 89 | 1017.0 |
| 20260510114715 | 11 | 64 | 3.2 | 3.2 | 0.00 | 0.00 | 0.00 | 89 | 1017.1 |
| 20260510114212 | 11 | 59 | 3.2 | 3.2 | 0.00 | 0.00 | 0.00 | 89 | 1017.2 |
| 20260510113707 | 11 | 42 | 1.6 | 1.6 | 0.00 | 0.00 | 0.00 | 89 | 1017.2 |
| 20260510113204 | 11 | 1 | 0.0 | 1.6 | 0.00 | 0.00 | 0.00 | 89 | 1017.3 |
| 20260510112700 | 11 | 15 | 1.6 | 1.6 | 0.00 | 0.00 | 0.00 | 89 | 1017.2 |
| 20260510112158 | 11 | 355 | 0.0 | 0.0 | 0.00 | 0.00 | 0.00 | 89 | 1017.5 |
| 20260510111648 | 10 | 9 | 1.6 | 1.6 | 0.00 | 0.00 | 0.00 | 89 | 1017.1 |
| 20260510111145 | 11 | 329 | 0.0 | 0.0 | 0.00 | 0.00 | 0.00 | 89 | 1016.9 |
| 20260510110639 | 10 | 325 | 0.0 | 0.0 | 0.00 | 0.00 | 0.00 | 89 | 1017.2 |
| 20260510110137 | 10 | 349 | 0.0 | 0.0 | 0.00 | 0.00 | 0.00 | 89 | 1017.2 |
| 20260510105633 | 10 | 317 | 0.0 | 0.0 | 0.00 | 0.00 | 0.00 | 89 | 1017.0 |
| 20260510105132 | 10 | 297 | 0.0 | 0.0 | 0.00 | 0.00 | 0.00 | 90 | 1017.0 |
| 20260510104630 | 10 | 313 | 0.0 | 0.0 | 0.00 | 0.00 | 0.00 | 90 | 1017.0 |
| 20260510104126 | 10 | 323 | 0.0 | 0.0 | 0.00 | 0.00 | 0.00 | 90 | 1016.8 |
| 20260510103623 | 10 | 309 | 0.0 | 0.0 | 0.00 | 0.00 | 0.00 | 90 | 1016.9 |
| 20260510103119 | 10 | 309 | 0.0 | 0.0 | 0.00 | 0.00 | 0.00 | 90 | 1016.9 |
| 20260510102614 | 10 | 301 | 0.0 | 0.0 | 0.00 | 0.00 | 0.00 | 89 | 1016.7 |
| 20260510102110 | 11 | 303 | 0.0 | 0.0 | 0.00 | 0.00 | 0.00 | 89 | 1016.7 |
| 20260510101609 | 11 | 297 | 0.0 | 1.6 | 0.00 | 0.00 | 0.00 | 89 | 1016.6 |
| 20260510101107 | 11 | 299 | 1.6 | 3.2 | 0.00 | 0.00 | 0.00 | 89 | 1016.7 |
| 20260510100602 | 11 | 280 | 1.6 | 1.6 | 0.00 | 0.00 | 0.00 | 89 | 1016.5 |
| 20260510100100 | 11 | 287 | 0.0 | 0.0 | 0.00 | 0.00 | 0.00 | 88 | 1016.5 |
| 20260510095556 | 11 | 299 | 0.0 | 0.0 | 0.00 | 0.00 | 0.00 | 87 | 1016.3 |
| 20260510095055 | 11 | 303 | 0.0 | 0.0 | 0.00 | 0.00 | 0.00 | 87 | 1016.3 |
| 20260510094550 | 11 | 305 | 0.0 | 0.0 | 0.00 | 0.00 | 0.00 | 87 | 1016.4 |
| 20260510094045 | 11 | 305 | 0.0 | 1.6 | 0.00 | 0.00 | 0.00 | 87 | 1016.3 |
| 20260510093542 | 11 | 313 | 1.6 | 1.6 | 0.00 | 0.00 | 0.00 | 87 | 1016.4 |
| 20260510093039 | 11 | 317 | 1.6 | 3.2 | 0.00 | 0.00 | 0.00 | 87 | 1016.3 |
| 20260510092536 | 11 | 301 | 3.2 | 4.8 | 0.00 | 0.00 | 0.00 | 87 | 1016.4 |
| 20260510092035 | 11 | 317 | 1.6 | 1.6 | 0.00 | 0.00 | 0.00 | 87 | 1016.2 |
| 20260510091532 | 11 | 311 | 3.2 | 3.2 | 0.00 | 0.00 | 0.00 | 86 | 1016.3 |
| 20260510091028 | 11 | 305 | 1.6 | 1.6 | 0.00 | 0.00 | 0.00 | 86 | 1016.3 |
| 20260510090520 | 11 | 311 | 0.0 | 1.6 | 0.00 | 0.00 | 0.00 | 86 | 1016.2 |
| 20260510090016 | 11 | 304 | 0.0 | 1.6 | 0.00 | 0.00 | 0.00 | 85 | 1016.0 |
| 20260510085516 | 12 | 308 | 1.6 | 3.2 | 0.00 | 0.00 | 0.00 | 85 | 1016.1 |
| 20260510085012 | 12 | 318 | 1.6 | 3.2 | 0.00 | 0.00 | 0.00 | 85 | 1016.2 |
| 20260510084509 | 12 | 317 | 3.2 | 3.2 | 0.00 | 0.00 | 0.00 | 84 | 1016.1 |
| 20260510084005 | 12 | 313 | 1.6 | 3.2 | 0.00 | 0.00 | 0.00 | 84 | 1016.2 |
| 20260510083502 | 12 | 335 | 3.2 | 4.8 | 0.00 | 0.00 | 0.00 | 84 | 1016.2 |
| 20260510082957 | 12 | 329 | 1.6 | 1.6 | 0.00 | 0.00 | 0.00 | 85 | 1015.8 |
| 20260510082455 | 12 | 312 | 3.2 | 3.2 | 0.00 | 0.00 | 0.00 | 85 | 1016.0 |
| 20260510081955 | 12 | 308 | 3.2 | 3.2 | 0.00 | 0.00 | 0.00 | 85 | 1015.9 |
| 20260510081451 | 12 | 293 | 0.0 | 1.6 | 0.00 | 0.00 | 0.00 | 85 | 1016.1 |
| 20260510080947 | 12 | 314 | 3.2 | 3.2 | 0.00 | 0.00 | 0.00 | 84 | 1016.0 |
| 20260510080445 | 12 | 305 | 1.6 | 1.6 | 0.00 | 0.00 | 0.00 | 83 | 1016.3 |
| 20260510075942 | 12 | 308 | 3.2 | 3.2 | 0.00 | 0.00 | 0.00 | 83 | 1016.0 |
| 20260510075440 | 12 | 298 | 0.0 | 1.6 | 0.00 | 0.00 | 0.00 | 82 | 1016.0 |
| 20260510074937 | 12 | 300 | 0.0 | 0.0 | 0.00 | 0.00 | 0.00 | 82 | 1016.0 |
| 20260510074434 | 12 | 300 | 0.0 | 0.0 | 0.00 | 0.00 | 0.00 | 81 | 1015.9 |
| 20260510073930 | 12 | 312 | 0.0 | 0.0 | 0.00 | 0.00 | 0.00 | 79 | 1016.0 |
| 20260510073426 | 13 | 306 | 0.0 | 0.0 | 0.00 | 0.00 | 0.00 | 78 | 1015.9 |
| 20260510072923 | 13 | 308 | 0.0 | 0.0 | 0.00 | 0.00 | 0.00 | 77 | 1016.0 |
| 20260510072420 | 13 | 326 | 3.2 | 3.2 | 0.00 | 0.00 | 0.00 | 77 | 1016.2 |
| 20260510071915 | 13 | 304 | 0.0 | 0.0 | 0.00 | 0.00 | 0.00 | 79 | 1015.9 |
| 20260510071412 | 13 | 296 | 0.0 | 0.0 | 0.00 | 0.00 | 0.00 | 79 | 1016.0 |
| 20260510070910 | 13 | 290 | 0.0 | 0.0 | 0.00 | 0.00 | 0.00 | 80 | 1016.1 |
| 20260510070407 | 13 | 286 | 0.0 | 0.0 | 0.00 | 0.00 | 0.00 | 80 | 1016.2 |
| 20260510065902 | 13 | 278 | 0.0 | 0.0 | 0.00 | 0.00 | 0.00 | 80 | 1016.0 |
| 20260510065359 | 13 | 288 | 0.0 | 0.0 | 0.00 | 0.00 | 0.00 | 78 | 1015.9 |
| 20260510064855 | 13 | 280 | 3.2 | 3.2 | 0.00 | 0.00 | 0.00 | 78 | 1015.8 |
| 20260510064354 | 13 | 291 | 1.6 | 1.6 | 0.00 | 0.00 | 0.00 | 77 | 1015.9 |
| 20260510063849 | 13 | 347 | 1.6 | 3.2 | 0.00 | 0.00 | 0.00 | 76 | 1015.8 |
| 20260510063346 | 13 | 325 | 3.2 | 3.2 | 0.00 | 0.00 | 0.00 | 75 | 1015.9 |
| 20260510062843 | 13 | 292 | 0.0 | 0.0 | 0.00 | 0.00 | 0.00 | 75 | 1016.0 |
| 20260510062338 | 13 | 293 | 3.2 | 4.8 | 0.00 | 0.00 | 0.00 | 75 | 1016.1 |
| 20260510061834 | 13 | 292 | 1.6 | 1.6 | 0.00 | 0.00 | 0.00 | 75 | 1016.1 |
| 20260510061331 | 13 | 275 | 1.6 | 3.2 | 0.00 | 0.00 | 0.00 | 76 | 1016.0 |
| 20260510060827 | 13 | 299 | 0.0 | 1.6 | 0.00 | 0.00 | 0.00 | 77 | 1016.0 |
| 20260510060324 | 13 | 308 | 0.0 | 1.6 | 0.00 | 0.00 | 0.00 | 77 | 1016.1 |
| 20260510055821 | 13 | 298 | 0.0 | 0.0 | 0.00 | 0.00 | 0.00 | 78 | 1016.1 |
| 20260510055320 | 13 | 289 | 0.0 | 0.0 | 0.00 | 0.00 | 0.00 | 79 | 1016.3 |
| 20260510054819 | 13 | 302 | 0.0 | 0.0 | 0.00 | 0.00 | 0.00 | 78 | 1016.0 |
| 20260510054315 | 13 | 297 | 0.0 | 0.0 | 0.00 | 0.00 | 0.00 | 78 | 1015.9 |
| 20260510053810 | 13 | 287 | 1.6 | 1.6 | 0.00 | 0.00 | 0.00 | 79 | 1016.0 |
| 20260510053305 | 14 | 289 | 0.0 | 0.0 | 0.00 | 0.00 | 0.00 | 78 | 1016.0 |
| 20260510052802 | 14 | 292 | 0.0 | 0.0 | 0.00 | 0.00 | 0.00 | 77 | 1016.0 |
| 20260510052258 | 14 | 277 | 3.2 | 3.2 | 0.00 | 0.00 | 0.00 | 76 | 1016.0 |
| 20260510051754 | 15 | 293 | 1.6 | 1.6 | 0.00 | 0.00 | 0.00 | 77 | 1015.8 |
| 20260510051251 | 14 | 287 | 1.6 | 1.6 | 0.00 | 0.00 | 0.00 | 76 | 1016.2 |
| 20260510050747 | 14 | 313 | 0.0 | 0.0 | 0.00 | 0.00 | 0.00 | 76 | 1016.0 |
| 20260510050239 | 14 | 305 | 0.0 | 0.0 | 0.00 | 0.00 | 0.00 | 77 | 1016.0 |
| 20260510045736 | 14 | 302 | 0.0 | 0.0 | 0.00 | 0.00 | 0.00 | 77 | 1016.0 |
| 20260510045232 | 14 | 309 | 0.0 | 1.6 | 0.00 | 0.00 | 0.00 | 78 | 1016.1 |
| 20260510044729 | 14 | 306 | 1.6 | 3.2 | 0.00 | 0.00 | 0.00 | 78 | 1016.0 |
| 20260510044227 | 15 | 299 | 0.0 | 0.0 | 0.00 | 0.00 | 0.00 | 78 | 1015.8 |
| 20260510043722 | 15 | 295 | 0.0 | 0.0 | 0.00 | 0.00 | 0.00 | 78 | 1015.8 |
| 20260510043219 | 15 | 286 | 0.0 | 0.0 | 0.00 | 0.00 | 0.00 | 78 | 1016.0 |
| 20260510042716 | 15 | 294 | 0.0 | 0.0 | 0.00 | 0.00 | 0.00 | 77 | 1015.9 |
| 20260510042212 | 15 | 307 | 0.0 | 0.0 | 0.00 | 0.00 | 0.00 | 77 | 1015.7 |
| 20260510041709 | 15 | 300 | 3.2 | 3.2 | 0.00 | 0.00 | 0.00 | 77 | 1015.8 |
| 20260510041207 | 15 | 278 | 3.2 | 3.2 | 0.00 | 0.00 | 0.00 | 76 | 1015.8 |
| 20260510040703 | 15 | 288 | 0.0 | 1.6 | 0.00 | 0.00 | 0.00 | 76 | 1015.8 |
| 20260510040200 | 15 | 298 | 3.2 | 4.8 | 0.00 | 0.00 | 0.00 | 76 | 1015.6 |
| 20260510035656 | 15 | 311 | 0.0 | 0.0 | 0.00 | 0.00 | 0.00 | 75 | 1015.7 |
| 20260510035151 | 15 | 291 | 1.6 | 1.6 | 0.00 | 0.00 | 0.00 | 74 | 1016.0 |
| 20260510034648 | 16 | 291 | 3.2 | 3.2 | 0.00 | 0.00 | 0.00 | 74 | 1015.9 |
| 20260510034145 | 16 | 302 | 3.2 | 3.2 | 0.00 | 0.00 | 0.00 | 74 | 1015.7 |
| 20260510033641 | 16 | 298 | 0.0 | 1.6 | 0.00 | 0.00 | 0.00 | 73 | 1015.7 |
| 20260510033139 | 16 | 297 | 0.0 | 0.0 | 0.00 | 0.00 | 0.00 | 73 | 1015.8 |
| 20260510032635 | 16 | 299 | 1.6 | 1.6 | 0.00 | 0.00 | 0.00 | 73 | 1015.7 |
| 20260510032131 | 16 | 299 | 0.0 | 0.0 | 0.00 | 0.00 | 0.00 | 72 | 1015.7 |
| 20260510031626 | 16 | 302 | 0.0 | 0.0 | 0.00 | 0.00 | 0.00 | 72 | 1015.8 |
| 20260510031123 | 16 | 304 | 0.0 | 0.0 | 0.00 | 0.00 | 0.00 | 71 | 1015.9 |
| 20260510030617 | 16 | 308 | 1.6 | 3.2 | 0.00 | 0.00 | 0.00 | 71 | 1015.9 |
| 20260510030115 | 16 | 272 | 1.6 | 3.2 | 0.00 | 0.00 | 0.00 | 71 | 1016.0 |
| 20260510025612 | 16 | 307 | 0.0 | 0.0 | 0.00 | 0.00 | 0.00 | 70 | 1015.8 |
| 20260510025110 | 16 | 312 | 0.0 | 0.0 | 0.00 | 0.00 | 0.00 | 70 | 1015.8 |
| 20260510024606 | 17 | 336 | 0.0 | 3.2 | 0.00 | 0.00 | 0.00 | 69 | 1015.9 |
| 20260510024103 | 17 | 301 | 0.0 | 0.0 | 0.00 | 0.00 | 0.00 | 69 | 1016.0 |
| 20260510023559 | 17 | 301 | 0.0 | 0.0 | 0.00 | 0.00 | 0.00 | 68 | 1016.1 |
| 20260510023057 | 17 | 296 | 1.6 | 1.6 | 0.00 | 0.00 | 0.00 | 68 | 1016.1 |
| 20260510022556 | 17 | 280 | 0.0 | 0.0 | 0.00 | 0.00 | 0.00 | 67 | 1016.2 |
| 20260510022055 | 17 | 307 | 0.0 | 0.0 | 0.00 | 0.00 | 0.00 | 67 | 1016.2 |
| 20260510021547 | 17 | 299 | 6.4 | 8.0 | 0.00 | 0.00 | 0.00 | 66 | 1016.2 |
| 20260510021044 | 17 | 353 | 4.8 | 8.0 | 0.00 | 0.00 | 0.00 | 66 | 1016.2 |
| 20260510020538 | 17 | 345 | 4.8 | 4.8 | 0.00 | 0.00 | 0.00 | 65 | 1016.5 |
| 20260510020034 | 18 | 338 | 1.6 | 1.6 | 0.00 | 0.00 | 0.00 | 64 | 1016.5 |
| 20260510015530 | 18 | 321 | 4.8 | 4.8 | 0.00 | 0.00 | 0.00 | 64 | 1016.3 |
| 20260510015026 | 18 | 308 | 1.6 | 3.2 | 0.00 | 0.00 | 0.00 | 64 | 1016.3 |
| 20260510014523 | 17 | 320 | 1.6 | 1.6 | 0.00 | 0.00 | 0.00 | 65 | 1016.5 |
| 20260510014020 | 17 | 317 | 3.2 | 4.8 | 0.00 | 0.00 | 0.00 | 65 | 1016.8 |
| 20260510013515 | 17 | 311 | 0.0 | 1.6 | 0.00 | 0.00 | 0.00 | 65 | 1017.0 |
| 20260510013011 | 17 | 21 | 9.7 | 11.3 | 0.00 | 0.00 | 0.00 | 66 | 1016.8 |
| 20260510012505 | 18 | 350 | 12.9 | 16.1 | 0.00 | 0.00 | 0.00 | 64 | 1017.2 |
| 20260510012001 | 18 | 333 | 6.4 | 8.0 | 0.00 | 0.00 | 0.00 | 64 | 1016.9 |
| 20260510011455 | 17 | 327 | 8.0 | 8.0 | 0.00 | 0.00 | 0.00 | 65 | 1016.9 |
| 20260510010951 | 17 | 332 | 8.0 | 12.9 | 0.00 | 0.00 | 0.00 | 66 | 1017.1 |
| 20260510010449 | 17 | 333 | 4.8 | 8.0 | 0.00 | 0.00 | 0.00 | 67 | 1017.0 |
| 20260510005946 | 17 | 330 | 3.2 | 3.2 | 0.00 | 0.00 | 0.00 | 66 | 1017.0 |
| 20260510005442 | 17 | 322 | 6.4 | 9.7 | 0.00 | 0.00 | 0.00 | 66 | 1017.1 |
| 20260510004939 | 18 | 316 | 1.6 | 3.2 | 0.00 | 0.00 | 0.00 | 65 | 1017.0 |
| 20260510004436 | 18 | 340 | 6.4 | 9.7 | 0.00 | 0.00 | 0.00 | 66 | 1017.2 |
| 20260510003934 | 18 | 337 | 9.7 | 11.3 | 0.00 | 0.00 | 0.00 | 65 | 1017.3 |
| 20260510003431 | 18 | 293 | 3.2 | 3.2 | 0.00 | 0.00 | 0.00 | 65 | 1017.3 |
| 20260510002930 | 18 | 315 | 6.4 | 8.0 | 0.00 | 0.00 | 0.00 | 64 | 1017.1 |
| 20260510002427 | 18 | 347 | 8.0 | 11.3 | 0.00 | 0.00 | 0.00 | 64 | 1017.5 |
| 20260510001924 | 18 | 324 | 6.4 | 8.0 | 0.00 | 0.00 | 0.00 | 63 | 1017.4 |
| 20260510001421 | 18 | 347 | 4.8 | 8.0 | 0.00 | 0.00 | 0.00 | 63 | 1017.5 |
| 20260510000919 | 19 | 345 | 6.4 | 8.0 | 0.00 | 0.00 | 0.00 | 60 | 1017.6 |
| 20260510000415 | 18 | 348 | 1.6 | 3.2 | 0.00 | 0.00 | 0.00 | 61 | 1017.6 |
| 20260509235911 | 18 | 335 | 3.2 | 3.2 | 0.00 | 0.00 | 0.00 | 61 | 1017.6 |
| 20260509235408 | 18 | 338 | 6.4 | 8.0 | 0.00 | 0.00 | 0.00 | 60 | 1017.9 |
| 20260509234904 | 19 | 302 | 4.8 | 8.0 | 0.00 | 0.00 | 0.00 | 58 | 1017.8 |
| 20260509234402 | 20 | 314 | 6.4 | 8.0 | 0.00 | 0.00 | 0.00 | 54 | 1017.8 |
| 20260509233859 | 19 | 308 | 3.2 | 4.8 | 0.00 | 0.00 | 0.00 | 54 | 1018.0 |
| 20260509233357 | 20 | 311 | 4.8 | 4.8 | 0.00 | 0.00 | 0.00 | 52 | 1017.7 |
| 20260509232852 | 20 | 348 | 4.8 | 8.0 | 0.00 | 0.00 | 0.00 | 52 | 1018.0 |
| 20260509232351 | 20 | 293 | 8.0 | 11.3 | 0.00 | 0.00 | 0.00 | 51 | 1017.8 |
| 20260509231846 | 20 | 314 | 8.0 | 9.7 | 0.00 | 0.00 | 0.00 | 51 | 1018.1 |
| 20260509231343 | 20 | 41 | 3.2 | 3.2 | 0.00 | 0.00 | 0.00 | 50 | 1018.1 |
| 20260509230841 | 19 | 4 | 6.4 | 8.0 | 0.00 | 0.00 | 0.00 | 52 | 1017.9 |
| 20260509230332 | 19 | 347 | 4.8 | 4.8 | 0.00 | 0.00 | 0.00 | 52 | 1018.1 |
| 20260509225827 | 20 | 318 | 6.4 | 8.0 | 0.00 | 0.00 | 0.00 | 52 | 1018.0 |
| 20260509225325 | 20 | 321 | 8.0 | 11.3 | 0.00 | 0.00 | 0.00 | 50 | 1018.5 |
| 20260509224821 | 19 | 355 | 1.6 | 3.2 | 0.00 | 0.00 | 0.00 | 53 | 1018.5 |
| 20260509224317 | 20 | 299 | 3.2 | 4.8 | 0.00 | 0.00 | 0.00 | 52 | 1018.7 |
| 20260509223814 | 19 | 278 | 3.2 | 3.2 | 0.00 | 0.00 | 0.00 | 53 | 1018.6 |
| 20260509223310 | 18 | 294 | 3.2 | 3.2 | 0.00 | 0.00 | 0.00 | 56 | 1018.8 |
| 20260509222807 | 19 | 266 | 6.4 | 8.0 | 0.00 | 0.00 | 0.00 | 53 | 1018.7 |
| 20260509222306 | 19 | 309 | 4.8 | 4.8 | 0.00 | 0.00 | 0.00 | 53 | 1018.8 |
| 20260509221758 | 19 | 323 | 11.3 | 11.3 | 0.00 | 0.00 | 0.00 | 54 | 1018.8 |
| 20260509221256 | 19 | 8 | 9.7 | 14.5 | 0.00 | 0.00 | 0.00 | 53 | 1018.9 |
| 20260509220751 | 20 | 5 | 8.0 | 11.3 | 0.00 | 0.00 | 0.00 | 54 | 1018.7 |
| 20260509220248 | 20 | 342 | 6.4 | 9.7 | 0.00 | 0.00 | 0.00 | 54 | 1018.9 |
| 20260509215743 | 18 | 355 | 9.7 | 11.3 | 0.00 | 0.00 | 0.00 | 55 | 1018.9 |
| 20260509215240 | 19 | 309 | 1.6 | 3.2 | 0.00 | 0.00 | 0.00 | 53 | 1019.0 |
| 20260509214737 | 20 | 317 | 4.8 | 4.8 | 0.00 | 0.00 | 0.00 | 53 | 1018.9 |
| 20260509214234 | 20 | 337 | 3.2 | 8.0 | 0.00 | 0.00 | 0.00 | 53 | 1018.9 |
| 20260509213731 | 19 | 341 | 4.8 | 9.7 | 0.00 | 0.00 | 0.00 | 53 | 1019.0 |
| 20260509213226 | 18 | 323 | 6.4 | 11.3 | 0.00 | 0.00 | 0.00 | 54 | 1018.8 |
| 20260509212724 | 18 | 320 | 4.8 | 9.7 | 0.00 | 0.00 | 0.00 | 53 | 1018.9 |
| 20260509212221 | 18 | 338 | 6.4 | 9.7 | 0.00 | 0.00 | 0.00 | 51 | 1019.2 |
| 20260509211717 | 19 | 19 | 1.6 | 3.2 | 0.00 | 0.00 | 0.00 | 53 | 1019.4 |
| 20260509211214 | 20 | 332 | 8.0 | 14.5 | 0.00 | 0.00 | 0.00 | 52 | 1019.3 |
| 20260509210710 | 20 | 282 | 4.8 | 4.8 | 0.00 | 0.00 | 0.00 | 52 | 1019.3 |
| 20260509210208 | 19 | 310 | 4.8 | 4.8 | 0.00 | 0.00 | 0.00 | 56 | 1019.3 |
| 20260509205707 | 20 | 301 | 6.4 | 9.7 | 0.00 | 0.00 | 0.00 | 55 | 1019.5 |
| 20260509205207 | 20 | 272 | 3.2 | 3.2 | 0.00 | 0.00 | 0.00 | 56 | 1019.2 |
| 20260509204703 | 19 | 314 | 3.2 | 3.2 | 0.00 | 0.00 | 0.00 | 58 | 1019.3 |
| 20260509204200 | 19 | 313 | 8.0 | 9.7 | 0.00 | 0.00 | 0.00 | 58 | 1019.3 |
| 20260509203656 | 18 | 282 | 6.4 | 8.0 | 0.00 | 0.00 | 0.00 | 60 | 1019.5 |
| 20260509203154 | 18 | 261 | 4.8 | 4.8 | 0.00 | 0.00 | 0.00 | 60 | 1019.3 |
| 20260509202650 | 18 | 4 | 8.0 | 12.9 | 0.00 | 0.00 | 0.00 | 61 | 1019.5 |
| 20260509202144 | 18 | 332 | 3.2 | 4.8 | 0.00 | 0.00 | 0.00 | 62 | 1019.5 |
| 20260509201640 | 18 | 287 | 6.4 | 9.7 | 0.00 | 0.00 | 0.00 | 61 | 1019.5 |
| 20260509201137 | 18 | 199 | 6.4 | 8.0 | 0.00 | 0.00 | 0.00 | 63 | 1019.7 |
| 20260509200633 | 18 | 244 | 9.7 | 11.3 | 0.00 | 0.00 | 0.00 | 62 | 1019.6 |
| 20260509200128 | 18 | 303 | 6.4 | 9.7 | 0.00 | 0.00 | 0.00 | 63 | 1019.8 |
| 20260509195624 | 18 | 268 | 11.3 | 16.1 | 0.00 | 0.00 | 0.00 | 62 | 1019.8 |
| 20260509195119 | 18 | 300 | 3.2 | 4.8 | 0.00 | 0.00 | 0.00 | 63 | 1019.8 |
| 20260509194619 | 19 | 299 | 6.4 | 11.3 | 0.00 | 0.00 | 0.00 | 60 | 1020.0 |
| 20260509194117 | 19 | 247 | 8.0 | 11.3 | 0.00 | 0.00 | 0.00 | 60 | 1020.1 |
| 20260509193612 | 20 | 294 | 6.4 | 9.7 | 0.00 | 0.00 | 0.00 | 59 | 1020.2 |
| 20260509193108 | 18 | 317 | 3.2 | 4.8 | 0.00 | 0.00 | 0.00 | 64 | 1020.3 |
| 20260509192605 | 17 | 246 | 1.6 | 3.2 | 0.00 | 0.00 | 0.00 | 65 | 1020.4 |
| 20260509192100 | 18 | 346 | 3.2 | 4.8 | 0.00 | 0.00 | 0.00 | 64 | 1020.4 |
| 20260509191555 | 18 | 294 | 6.4 | 8.0 | 0.00 | 0.00 | 0.00 | 65 | 1020.4 |
| 20260509191051 | 18 | 298 | 3.2 | 11.3 | 0.00 | 0.00 | 0.00 | 63 | 1020.7 |
| 20260509190548 | 18 | 281 | 6.4 | 8.0 | 0.00 | 0.00 | 0.00 | 65 | 1020.7 |
| 20260509190046 | 17 | 268 | 4.8 | 4.8 | 0.00 | 0.00 | 0.00 | 66 | 1020.7 |
| 20260509185543 | 18 | 225 | 6.4 | 8.0 | 0.00 | 0.00 | 0.00 | 65 | 1020.6 |
| 20260509185039 | 17 | 239 | 1.6 | 1.6 | 0.00 | 0.00 | 0.00 | 67 | 1020.8 |
| 20260509184538 | 18 | 308 | 4.8 | 4.8 | 0.00 | 0.00 | 0.00 | 66 | 1020.8 |
| 20260509184033 | 17 | 286 | 1.6 | 1.6 | 0.00 | 0.00 | 0.00 | 68 | 1020.9 |
| 20260509183529 | 17 | 254 | 6.4 | 9.7 | 0.00 | 0.00 | 0.00 | 68 | 1020.9 |
| 20260509183025 | 17 | 203 | 4.8 | 4.8 | 0.00 | 0.00 | 0.00 | 68 | 1020.8 |
| 20260509182521 | 17 | 253 | 4.8 | 4.8 | 0.00 | 0.00 | 0.00 | 67 | 1020.8 |
| 20260509182018 | 16 | 283 | 3.2 | 4.8 | 0.00 | 0.00 | 0.00 | 70 | 1021.1 |
| 20260509181516 | 17 | 285 | 6.4 | 9.7 | 0.00 | 0.00 | 0.00 | 69 | 1020.8 |
| 20260509181010 | 17 | 219 | 3.2 | 3.2 | 0.00 | 0.00 | 0.00 | 66 | 1020.8 |
| 20260509180503 | 16 | 282 | 1.6 | 1.6 | 0.00 | 0.00 | 0.00 | 73 | 1021.0 |
| 20260509180002 | 16 | 278 | 6.4 | 8.0 | 0.00 | 0.00 | 0.00 | 72 | 1021.1 |
| 20260509175457 | 16 | 258 | 4.8 | 8.0 | 0.00 | 0.00 | 0.00 | 71 | 1020.9 |
| 20260509174954 | 16 | 311 | 1.6 | 3.2 | 0.00 | 0.00 | 0.00 | 72 | 1021.2 |
| 20260509174450 | 16 | 318 | 1.6 | 3.2 | 0.00 | 0.00 | 0.00 | 74 | 1021.2 |
| 20260509173944 | 16 | 339 | 3.2 | 3.2 | 0.00 | 0.00 | 0.00 | 74 | 1021.3 |
| 20260509173439 | 16 | 308 | 6.4 | 8.0 | 0.00 | 0.00 | 0.00 | 73 | 1021.5 |
| 20260509172936 | 16 | 256 | 3.2 | 4.8 | 0.00 | 0.00 | 0.00 | 72 | 1021.3 |
| 20260509172433 | 16 | 346 | 4.8 | 4.8 | 0.00 | 0.00 | 0.00 | 72 | 1021.3 |
| 20260509171929 | 16 | 252 | 6.4 | 9.7 | 0.00 | 0.00 | 0.00 | 69 | 1021.2 |
| 20260509171425 | 16 | 222 | 1.6 | 1.6 | 0.00 | 0.00 | 0.00 | 69 | 1021.2 |
| 20260509170921 | 15 | 196 | 1.6 | 1.6 | 0.00 | 0.00 | 0.00 | 70 | 1021.3 |
| 20260509170417 | 15 | 129 | 6.4 | 8.0 | 0.00 | 0.00 | 0.00 | 69 | 1021.2 |
| 20260509165913 | 15 | 177 | 4.8 | 4.8 | 0.00 | 0.00 | 0.00 | 71 | 1021.2 |
| 20260509165407 | 15 | 92 | 6.4 | 9.7 | 0.00 | 0.00 | 0.00 | 72 | 1021.4 |
| 20260509164903 | 16 | 120 | 3.2 | 11.3 | 0.00 | 0.00 | 0.00 | 69 | 1021.3 |
| 20260509164359 | 15 | 85 | 1.6 | 3.2 | 0.00 | 0.00 | 0.00 | 73 | 1021.6 |
| 20260509163855 | 15 | 114 | 4.8 | 4.8 | 0.00 | 0.00 | 0.00 | 75 | 1021.3 |
| 20260509163352 | 15 | 228 | 1.6 | 1.6 | 0.00 | 0.00 | 0.00 | 77 | 1021.6 |
| 20260509162852 | 15 | 186 | 4.8 | 4.8 | 0.00 | 0.00 | 0.00 | 76 | 1021.5 |
| 20260509162350 | 14 | 198 | 1.6 | 3.2 | 0.00 | 0.00 | 0.00 | 78 | 1021.5 |
| 20260509161846 | 14 | 121 | 8.0 | 9.7 | 0.00 | 0.00 | 0.00 | 79 | 1021.6 |
| 20260509161342 | 14 | 192 | 3.2 | 3.2 | 0.00 | 0.00 | 0.00 | 78 | 1021.5 |
| 20260509160838 | 13 | 200 | 3.2 | 3.2 | 0.00 | 0.00 | 0.00 | 80 | 1021.7 |
| 20260509160334 | 13 | 167 | 4.8 | 8.0 | 0.00 | 0.00 | 0.00 | 79 | 1021.8 |
| 20260509155829 | 14 | 143 | 0.0 | 0.0 | 0.00 | 0.00 | 0.00 | 79 | 1022.0 |
| 20260509155326 | 13 | 117 | 6.4 | 8.0 | 0.00 | 0.00 | 0.00 | 80 | 1021.7 |
| 20260509154823 | 13 | 133 | 4.8 | 4.8 | 0.00 | 0.00 | 0.00 | 82 | 1021.9 |
| 20260509154319 | 13 | 149 | 3.2 | 4.8 | 0.00 | 0.00 | 0.00 | 82 | 1021.9 |
| 20260509153816 | 13 | 144 | 6.4 | 8.0 | 0.00 | 0.00 | 0.00 | 81 | 1021.9 |
| 20260509153313 | 12 | 155 | 1.6 | 1.6 | 0.00 | 0.00 | 0.00 | 85 | 1022.0 |
| 20260509152810 | 12 | 118 | 4.8 | 4.8 | 0.00 | 0.00 | 0.00 | 86 | 1021.8 |
| 20260509152307 | 12 | 160 | 4.8 | 8.0 | 0.00 | 0.00 | 0.00 | 85 | 1021.8 |
| 20260509151803 | 12 | 145 | 6.4 | 9.7 | 0.00 | 0.00 | 0.00 | 85 | 1021.8 |
| 20260509151259 | 12 | 139 | 4.8 | 8.0 | 0.00 | 0.00 | 0.00 | 86 | 1022.1 |
| 20260509150758 | 12 | 135 | 3.2 | 4.8 | 0.00 | 0.00 | 0.00 | 86 | 1022.3 |
| 20260509150255 | 13 | 197 | 4.8 | 4.8 | 0.00 | 0.00 | 0.00 | 84 | 1022.0 |
| 20260509145752 | 12 | 46 | 0.0 | 1.6 | 0.00 | 0.00 | 0.00 | 87 | 1022.4 |
| 20260509145252 | 12 | 122 | 3.2 | 3.2 | 0.00 | 0.00 | 0.00 | 87 | 1022.4 |
| 20260509144749 | 12 | 69 | 0.0 | 0.0 | 0.00 | 0.00 | 0.00 | 88 | 1022.4 |
| 20260509144245 | 12 | 145 | 8.0 | 8.0 | 0.00 | 0.00 | 0.00 | 87 | 1022.4 |
| 20260509143743 | 12 | 81 | 4.8 | 4.8 | 0.00 | 0.00 | 0.00 | 87 | 1022.3 |
| 20260509143240 | 12 | 67 | 0.0 | 0.0 | 0.00 | 0.00 | 0.00 | 87 | 1022.1 |
| 20260509142736 | 12 | 77 | 3.2 | 3.2 | 0.00 | 0.00 | 0.00 | 88 | 1022.2 |
| 20260509142232 | 12 | 133 | 1.6 | 3.2 | 0.00 | 0.00 | 0.00 | 86 | 1022.3 |
| 20260509141728 | 12 | 45 | 1.6 | 1.6 | 0.00 | 0.00 | 0.00 | 86 | 1022.5 |
| 20260509141226 | 12 | 42 | 0.0 | 0.0 | 0.00 | 0.00 | 0.00 | 88 | 1022.5 |
| 20260509140722 | 12 | 45 | 1.6 | 1.6 | 0.00 | 0.00 | 0.00 | 89 | 1022.5 |
| 20260509140222 | 11 | 41 | 0.0 | 0.0 | 0.00 | 0.00 | 0.00 | 90 | 1022.4 |
| 20260509135716 | 11 | 47 | 1.6 | 1.6 | 0.00 | 0.00 | 0.00 | 91 | 1022.4 |
| 20260509135214 | 11 | 38 | 1.6 | 1.6 | 0.00 | 0.00 | 0.00 | 92 | 1022.4 |
| 20260509134711 | 10 | 46 | 1.6 | 3.2 | 0.00 | 0.00 | 0.00 | 93 | 1022.5 |